RYR2CM LICJ-EPPO

Flight info

Callsign RYR2CM
Flight time N/A
Altitude 36000
Route LURON DCT DORAS DCT BEROL DCT ENSOT DCT PNZ DCT NEKPI DCT IBENI/N0448F370 DCT ALIVO DCT NAVTI DCT DESEN/N0450F380 DCT ARMEX DCT NILPU EPPO/28
Aircraft B38M/M-SDE1FGHILORVWXY/HB1

Departure

Time N/A
Airport Falcone–Borsellino Airport (LICJ)

Arrival

Time 2026-04-26 19:29
Airport Poznań-Ławica Airport (EPPO)
Time Latitude Longitude Altitude Speed Heading
2026-04-26 19:28 52.42271 16.81189 312 ft 0 kts 257°
2026-04-26 19:29 52.42270 16.81181 312 ft 1 kts 256°
2026-04-26 19:29 52.42267 16.81171 313 ft 1 kts 239°
2026-04-26 19:30 52.42255 16.81155 313 ft 4 kts 210°
2026-04-26 19:30 52.42219 16.81167 313 ft 8 kts 135°
2026-04-26 19:30 52.42188 16.81298 312 ft 16 kts 107°
2026-04-26 19:30 52.42162 16.81432 311 ft 21 kts 108°
2026-04-26 19:31 52.42120 16.81650 305 ft 14 kts 107°
2026-04-26 19:31 52.42091 16.81805 307 ft 15 kts 107°
2026-04-26 19:31 52.42058 16.81978 307 ft 17 kts 108°
2026-04-26 19:31 52.42019 16.82178 305 ft 20 kts 108°
2026-04-26 19:32 52.41976 16.82402 307 ft 21 kts 109°
2026-04-26 19:32 52.41936 16.82605 307 ft 17 kts 108°
2026-04-26 19:32 52.41898 16.82804 307 ft 19 kts 108°
2026-04-26 19:32 52.41865 16.82911 308 ft 9 kts 154°
2026-04-26 19:33 52.41820 16.82901 306 ft 11 kts 198°
2026-04-26 19:33 52.41735 16.82856 303 ft 10 kts 198°
2026-04-26 19:33 52.41717 16.82847 303 ft 3 kts 197°
2026-04-26 19:33 52.41681 16.82854 304 ft 7 kts 152°
2026-04-26 19:34 52.41658 16.82904 303 ft 5 kts 112°
2026-04-26 19:34 52.41631 16.82925 303 ft 5 kts 188°
2026-04-26 19:34 52.41591 16.82911 302 ft 0 kts 193°
2026-04-26 19:34 52.41585 16.82909 302 ft 0 kts 191°